FW1241 Weather Reports


Display with metric or nautical units.
time (UTC)temp
F
wind
direction
speed
MPH
gust
MPH
rain 1hr
in
rain 24hr
in
rain mn
in
humidity
%
barometer
mb
20260902051604 67 259 0.0 0.0 0.00 0.00 0.00 60 1013.1
20260902050105 68 259 0.0 0.0 0.00 0.00 0.00 57 1013.0
20260902045605 69 259 0.0 0.0 0.00 0.00 0.00 56 1012.9
20260902045104 69 259 0.0 0.0 0.00 0.00 0.00 56 1012.9
20260902044604 69 259 0.0 0.0 0.00 0.00 0.00 56 1012.8
20260902044105 69 259 0.0 0.0 0.00 0.00 0.00 53 1012.8
20260902043605 69 259 0.0 0.0 0.00 0.00 0.00 53 1012.7
20260902043105 70 259 0.0 0.0 0.00 0.00 0.00 53 1012.7
20260902040605 71 259 0.0 0.0 0.00 0.00 0.00 49 1012.4
20260902035605 72 259 0.0 0.0 0.00 0.00 0.00 48 1012.4
20260902034605 72 259 0.0 0.0 0.00 0.00 0.00 48 1012.2
20260902034104 72 259 0.0 0.0 0.00 0.00 0.00 48 1012.2
20260902032104 73 258 0.0 0.0 0.00 0.00 0.00 48 1012.0
20260902031605 73 259 0.0 0.0 0.00 0.00 0.00 46 1012.0
20260902031104 73 259 0.0 0.0 0.00 0.00 0.00 45 1011.9
20260902025105 75 259 0.0 1.0 0.00 0.00 0.00 44 1011.8
20260902024605 75 284 0.0 1.0 0.00 0.00 0.00 43 1011.7
20260902024105 75 284 0.0 0.0 0.00 0.00 0.00 44 1011.6
20260902023605 75 283 0.0 1.0 0.00 0.00 0.00 44 1011.6
20260902015104 79 336 0.0 1.0 0.00 0.00 0.00 39 1011.4
20260902014105 80 294 0.0 1.0 0.00 0.00 0.00 37 1011.4
20260902011605 83 297 0.0 2.0 0.00 0.00 0.00 34 1011.2
20260902011105 83 264 0.0 1.0 0.00 0.00 0.00 33 1011.3
20260902010105 84 300 0.0 3.0 0.00 0.00 0.00 34 1011.2
20260902005605 84 295 1.0 3.0 0.00 0.00 0.00 33 1011.2
20260902005105 84 300 1.0 3.0 0.00 0.00 0.00 32 1011.2
20260902004604 84 294 0.0 2.0 0.00 0.00 0.00 31 1011.2
20260902003604 85 295 1.0 3.0 0.00 0.00 0.00 30 1011.2
20260902003105 85 309 1.0 2.0 0.00 0.00 0.00 32 1011.2
20260902001105 86 294 1.0 3.0 0.00 0.00 0.00 28 1011.3
20260901235604 86 245 1.0 2.0 0.00 0.00 0.00 29 1011.5
20260901234104 86 300 1.0 2.0 0.00 0.00 0.00 29 1011.6
20260901233104 85 325 0.0 3.0 0.00 0.00 0.00 30 1011.8
20260901232604 85 293 1.0 3.0 0.00 0.00 0.00 29 1011.8
20260901231605 86 272 0.0 2.0 0.00 0.00 0.00 28 1011.8
20260901231105 86 231 1.0 3.0 0.00 0.00 0.00 30 1011.9
20260901230605 86 209 0.0 1.0 0.00 0.00 0.00 28 1011.9
20260901230105 85 264 0.0 1.0 0.00 0.00 0.00 27 1011.9
20260901224605 85 333 1.0 3.0 0.00 0.00 0.00 30 1012.0
20260901223604 85 38 1.0 2.0 0.00 0.00 0.00 32 1012.1
20260901221605 85 117 0.0 2.0 0.00 0.00 0.00 33 1012.4
20260901220104 85 314 0.0 2.0 0.00 0.00 0.00 36 1012.6
20260901213605 84 281 0.0 1.0 0.00 0.00 0.00 36 1013.1
20260901212104 83 174 0.0 3.0 0.00 0.00 0.00 38 1013.3
20260901211604 83 196 1.0 3.0 0.00 0.00 0.00 40 1013.4
20260901210605 82 212 0.0 2.0 0.00 0.00 0.00 40 1013.4
20260901204104 82 212 0.0 1.0 0.00 0.00 0.00 41 1013.8
20260901201604 80 290 1.0 3.0 0.00 0.00 0.00 43 1014.2
20260901200605 80 354 0.0 1.0 0.00 0.00 0.00 44 1014.3
20260901200105 80 263 0.0 2.0 0.00 0.00 0.00 44 1014.3
20260901195605 81 334 0.0 1.0 0.00 0.00 0.00 44 1014.4
20260901195104 80 233 0.0 2.0 0.00 0.00 0.00 46 1014.5
20260901192104 79 298 0.0 2.0 0.00 0.00 0.00 49 1014.8
20260901191604 78 299 0.0 1.0 0.00 0.00 0.00 49 1014.8
20260901191105 78 99 0.0 1.0 0.00 0.00 0.00 51 1014.8
20260901190605 77 284 1.0 2.0 0.00 0.00 0.00 50 1014.9
20260901190105 77 252 0.0 2.0 0.00 0.00 0.00 51 1015.0
20260901185604 77 331 0.0 1.0 0.00 0.00 0.00 53 1015.0
20260901185105 77 291 1.0 3.0 0.00 0.00 0.00 52 1015.0
20260901183105 76 204 0.0 1.0 0.00 0.00 0.00 57 1015.2
20260901182105 74 293 1.0 2.0 0.00 0.00 0.00 58 1015.3
20260901181105 75 308 1.0 3.0 0.00 0.00 0.00 57 1015.4
20260901180605 74 160 0.0 0.0 0.00 0.00 0.00 58 1015.4
20260901180105 74 176 1.0 3.0 0.00 0.00 0.00 58 1015.4
20260901175604 74 159 1.0 5.0 0.00 0.00 0.00 58 1015.4
20260901174604 72 307 0.0 3.0 0.00 0.00 0.00 59 1015.4
20260901174105 73 276 0.0 0.0 0.00 0.00 0.00 60 1015.3
20260901173105 72 334 0.0 2.0 0.00 0.00 0.00 59 1015.3
20260901172604 72 166 0.0 1.0 0.00 0.00 0.00 61 1015.3
20260901172105 72 138 0.0 1.0 0.00 0.00 0.00 60 1015.2
20260901171605 72 253 0.0 1.0 0.00 0.00 0.00 62 1015.2
20260901171105 72 202 1.0 3.0 0.00 0.00 0.00 60 1015.2
20260901165604 71 101 0.0 2.0 0.00 0.00 0.00 63 1015.3
20260901165105 70 196 0.0 2.0 0.00 0.00 0.00 65 1015.2
20260901162605 69 204 0.0 3.0 0.00 0.00 0.00 65 1015.3
20260901162104 69 219 0.0 2.0 0.00 0.00 0.00 66 1015.3
20260901161105 68 243 0.0 0.0 0.00 0.00 0.00 66 1015.2
20260901160604 67 215 0.0 1.0 0.00 0.00 0.00 68 1015.2
20260901160104 67 219 0.0 0.0 0.00 0.00 0.00 68 1015.2
20260901154605 65 41 0.0 0.0 0.00 0.00 0.00 72 1015.2
20260901154105 65 308 0.0 0.0 0.00 0.00 0.00 72 1015.2
20260901153105 64 307 0.0 0.0 0.00 0.00 0.00 75 1015.2
20260901152105 62 349 0.0 0.0 0.00 0.00 0.00 80 1015.1
20260901151604 62 284 0.0 1.0 0.00 0.00 0.00 81 1015.0
20260901144604 59 300 0.0 0.0 0.00 0.00 0.00 87 1014.8
20260901143605 58 148 0.0 0.0 0.00 0.00 0.00 89 1014.6
20260901143105 58 166 0.0 0.0 0.00 0.00 0.00 90 1014.6
20260901142605 57 152 0.0 0.0 0.00 0.00 0.00 89 1014.5
20260901142104 57 152 0.0 0.0 0.00 0.00 0.00 89 1014.4
20260901140105 56 142 0.0 0.0 0.00 0.00 0.00 89 1014.1
20260901135105 56 142 0.0 0.0 0.00 0.00 0.00 88 1013.8
20260901134605 56 143 0.0 0.0 0.00 0.00 0.00 88 1013.7
20260901134104 56 142 0.0 0.0 0.00 0.00 0.00 88 1013.5
20260901133605 56 143 0.0 0.0 0.00 0.00 0.00 88 1013.5
20260901132604 56 143 0.0 0.0 0.00 0.00 0.00 88 1013.4
20260901131105 57 142 0.0 0.0 0.00 0.00 0.00 87 1013.3
20260901130604 57 124 0.0 0.0 0.00 0.00 0.00 87 1013.2
20260901125604 57 121 0.0 0.0 0.00 0.00 0.00 87 1013.1
20260901124605 57 143 0.0 1.0 0.00 0.00 0.00 87 1012.9
20260901123604 57 166 0.0 0.0 0.00 0.00 0.00 87 1012.8
20260901123104 57 166 0.0 0.0 0.00 0.00 0.00 87 1012.8
20260901121605 58 222 0.0 0.0 0.00 0.00 0.00 85 1012.6
20260901114104 60 222 0.0 0.0 0.00 0.00 0.00 82 1012.0
20260901113604 61 222 0.0 0.0 0.00 0.00 0.00 82 1011.9
20260901112605 61 222 0.0 0.0 0.00 0.00 0.00 82 1011.8
20260901111605 61 222 0.0 0.0 0.00 0.00 0.00 81 1011.7
20260901105604 61 222 0.0 0.0 0.00 0.00 0.00 79 1011.7
20260901104605 62 222 0.0 0.0 0.00 0.00 0.00 78 1011.7
20260901102605 62 222 0.0 0.0 0.00 0.00 0.00 78 1011.7
20260901095105 62 166 0.0 0.0 0.00 0.00 0.00 76 1011.7
20260901094605 62 166 0.0 0.0 0.00 0.00 0.00 76 1011.6
20260901094105 62 166 0.0 0.0 0.00 0.00 0.00 75 1011.6
20260901093605 62 166 0.0 0.0 0.00 0.00 0.00 74 1011.6
20260901093105 63 166 0.0 0.0 0.00 0.00 0.00 73 1011.5
20260901092604 63 166 0.0 0.0 0.00 0.00 0.00 71 1011.3
20260901092104 63 166 0.0 0.0 0.00 0.00 0.00 71 1011.3
20260901091605 63 143 0.0 1.0 0.00 0.00 0.00 70 1011.3
20260901090605 63 142 0.0 0.0 0.00 0.00 0.00 68 1011.1
20260901090104 63 142 0.0 0.0 0.00 0.00 0.00 67 1011.0
20260901085605 64 143 0.0 0.0 0.00 0.00 0.00 67 1010.9
20260901085104 64 143 0.0 0.0 0.00 0.00 0.00 66 1010.8
20260901084604 64 142 0.0 1.0 0.00 0.00 0.00 65 1010.8
20260901084104 64 108 0.0 0.0 0.00 0.00 0.00 62 1010.8
20260901083604 65 99 0.0 0.0 0.00 0.00 0.00 62 1010.8
20260901082604 65 99 0.0 0.0 0.00 0.00 0.00 60 1010.7
20260901082105 65 99 0.0 0.0 0.00 0.00 0.00 59 1010.7
20260901074605 65 100 0.0 0.0 0.00 0.00 0.00 57 1010.6
20260901072604 66 100 0.0 1.0 0.00 0.00 0.00 53 1010.3
20260901072104 66 139 0.0 0.0 0.00 0.00 0.00 52 1010.4
20260901071106 67 128 0.0 0.0 0.00 0.00 0.00 50 1010.5
20260901070105 67 128 0.0 0.0 0.00 0.00 0.00 49 1010.6
20260901065104 66 136 0.0 0.0 0.00 0.00 0.00 48 1010.4
20260901064605 67 135 0.0 0.0 0.00 0.00 0.00 48 1010.4
20260901064104 67 105 0.0 0.0 0.00 0.00 0.00 46 1010.4
20260901063604 67 105 0.0 0.0 0.00 0.00 0.00 46 1010.3
20260901055605 69 193 0.0 1.0 0.00 0.00 0.00 39 1010.1
20260901054104 70 200 0.0 2.0 0.00 0.00 0.00 39 1009.9
20260901053104 70 169 0.0 0.0 0.00 0.00 0.00 36 1009.6
20260901052105 70 156 0.0 0.0 0.00 0.00 0.00 37 1009.4